sat.trackr.live / text

‹ back to catalog

STARLINK-34768

NORAD 65095 · 2025-167T

PAYLOAD ACTIVE UNKNOWN

§ Identity

Operator
Country
US
Launch date
2025-08-04
Launch site
AFETR
Launch vehicle
Mass (kg)
RCS (m²)

Purposes: comms

External: N2YO · Heavens-Above · Gunter

§ Orbital elements

Epoch: 2026-09-20T05:28:30.724896Z

Period
93.85 min
Inclination
53.1578°
Eccentricity
0.0000942
Mean motion
15.34415661 rev/d
Perigee alt
462.0 km
Apogee alt
463.3 km
Semi-major
6,840.8 km
B*
7.1804e-4
RAAN
195.2960°
Arg perigee
75.2413°
Mean anomaly
284.8694°
Rev number
6,337

§ Raw data

STARLINK-347681 65095U 25167T   26263.22813339  .00023973  00000+0  71804-3 0  99922 65095  53.1578 195.2960 0000942  75.2413 284.8694 15.34415661 63371

JSON: /api/v1/satellites/65095 · /tle

For live sub-satellite position, see the globe view (requires WebGL).

§ Visibility from observer

Set your observer location to see the next 7 days of passes ≥ 10°. The values pass through the URL so the page stays shareable.

No JS? Fill the form by hand. The geolocation button needs JavaScript.